YO8RIX Weather Reports


time (UTC)temp
F
wind
direction
speed
knots
gust
knots
rain 1hr
in
rain 24hr
in
rain mn
in
humidity
%
barometer
mb
20260506134525 83 186 2.6 9.6 0.00 0.00 0.00 30 1010.9
20260506133520 83 178 3.5 5.2 0.00 0.00 0.00 29 1011.0
20260506132516 83 181 2.6 6.1 0.00 0.00 0.00 28 1011.1
20260506131533 83 191 2.6 9.6 0.00 0.00 0.00 29 1011.0
20260506130529 83 188 3.5 8.7 0.00 0.00 0.00 27 1011.2
20260506125526 82 189 3.5 9.6 0.00 0.00 0.00 28 1011.2
20260506124521 83 187 5.2 11.3 0.00 0.00 0.00 27 1011.4
20260506123542 83 190 3.5 9.6 0.00 0.00 0.00 28 1011.5
20260506122534 82 198 4.3 10.4 0.00 0.00 0.00 28 1011.7
20260506121550 83 194 5.2 10.4 0.00 0.00 0.00 27 1011.8
20260506120531 82 181 3.5 11.3 0.00 0.00 0.00 28 1011.8
20260506115523 82 193 5.2 12.2 0.00 0.00 0.00 27 1011.9
20260506114543 82 195 6.1 13.9 0.00 0.00 0.00 26 1012.1
20260506113534 83 186 4.3 12.2 0.00 0.00 0.00 27 1012.1
20260506112531 82 185 4.3 12.2 0.00 0.00 0.00 28 1012.2
20260506111528 82 188 7.0 15.6 0.00 0.00 0.00 27 1012.3
20260506110545 82 189 5.2 11.3 0.00 0.00 0.00 28 1012.5
20260506105540 82 193 6.1 14.8 0.00 0.00 0.00 28 1012.6
20260506104536 82 188 5.2 12.2 0.00 0.00 0.00 28 1012.7
20260506103531 82 192 3.5 8.7 0.00 0.00 0.00 36 1012.8
20260506102528 81 201 4.3 10.4 0.00 0.00 0.00 34 1012.9
20260506101524 80 181 3.5 13.0 0.00 0.00 0.00 41 1012.9
20260506100521 80 199 2.6 6.1 0.00 0.00 0.00 41 1012.8
20260506095517 79 185 1.7 5.2 0.00 0.00 0.00 42 1012.9
20260506094552 79 183 2.6 6.1 0.00 0.00 0.00 43 1013.2
20260506093529 78 186 3.5 7.8 0.00 0.00 0.00 44 1013.2
20260506092545 77 170 1.7 4.3 0.00 0.00 0.00 46 1013.3
20260506091522 76 179 1.7 7.0 0.00 0.00 0.00 45 1013.4
20260506090538 75 205 0.9 4.3 0.00 0.00 0.00 48 1013.4
20260506085534 75 198 1.7 5.2 0.00 0.00 0.00 48 1013.4
20260506084529 74 171 1.7 4.3 0.00 0.00 0.00 50 1013.4
20260506083526 74 103 1.7 6.1 0.00 0.00 0.00 50 1013.4
20260506082523 73 124 1.7 5.2 0.00 0.00 0.00 50 1013.5
20260506081519 73 159 0.9 3.5 0.00 0.00 0.00 50 1013.5
20260506080535 71 162 0.9 3.5 0.00 0.00 0.00 50 1013.5
20260506073522 68 170 0.9 2.6 0.00 0.00 0.00 52 1013.6
20260506072520 68 177 3.5 5.2 0.00 0.00 0.00 51 1013.6
20260506071616 67 176 2.6 4.3 0.00 0.00 0.00 53 1013.7
20260506070531 66 187 2.6 6.1 0.00 0.00 0.00 53 1013.6
20260506062516 64 153 1.7 4.3 0.00 0.00 0.00 56 1013.5
20260506061533 63 177 1.7 3.5 0.00 0.00 0.00 58 1013.7
20260506060529 62 175 1.7 4.3 0.00 0.00 0.00 61 1013.5
20260506050526 59 109 1.7 4.3 0.00 0.00 0.00 67 1013.6
20260506044518 58 125 1.7 2.6 0.00 0.00 0.00 67 1013.4
20260506043555 57 126 1.7 3.5 0.00 0.00 0.00 68 1013.3
20260506042531 56 88 2.6 3.5 0.00 0.00 0.00 69 1013.3
20260506041527 55 111 0.9 3.5 0.00 0.00 0.00 71 1013.2
20260506040525 54 136 1.7 3.5 0.00 0.00 0.00 70 1013.2
20260506035519 52 121 1.7 2.6 0.00 0.00 0.00 73 1013.2
20260506034535 51 141 2.6 3.5 0.00 0.00 0.00 76 1013.2
20260506033552 49 72 0.9 1.7 0.00 0.00 0.00 78 1013.2
20260506032529 49 129 1.7 2.6 0.00 0.00 0.00 79 1013.1
20260506031525 48 130 0.9 1.7 0.00 0.00 0.00 81 1013.0
20260506030525 48 98 0.9 2.6 0.00 0.00 0.00 81 1012.8
20260506025516 48 119 2.6 3.5 0.00 0.00 0.00 81 1012.9
20260506024533 49 127 1.7 2.6 0.00 0.00 0.00 80 1012.8
20260506023549 49 124 1.7 2.6 0.00 0.00 0.00 79 1012.8
20260506022524 50 127 0.9 2.6 0.00 0.00 0.00 78 1012.9
20260506021521 50 118 0.9 1.7 0.00 0.00 0.00 78 1012.8
20260506020516 50 125 0.9 1.7 0.00 0.00 0.00 77 1012.7
20260506015537 50 126 0.9 2.6 0.00 0.00 0.00 76 1012.7
20260506014529 51 120 0.0 1.7 0.00 0.00 0.00 75 1012.6
20260506013526 50 119 0.9 1.7 0.00 0.00 0.00 75 1012.6
20260506012522 51 106 0.0 1.7 0.00 0.00 0.00 74 1012.6
20260506011517 51 106 0.0 0.9 0.00 0.00 0.00 73 1012.6
20260506010534 52 98 0.9 1.7 0.00 0.00 0.00 74 1012.4
20260506005530 53 67 0.9 2.6 0.00 0.00 0.00 71 1012.5
20260506004547 56 163 1.7 2.6 0.00 0.00 0.00 66 1012.5
20260506003543 56 151 1.7 4.3 0.00 0.00 0.00 66 1012.5
20260506002520 55 144 1.7 3.5 0.00 0.00 0.00 68 1012.5
20260506001555 56 135 1.7 2.6 0.00 0.00 0.00 67 1012.5
20260506000531 56 162 2.6 3.5 0.00 0.00 0.00 66 1012.4
20260505235527 55 159 2.6 3.5 0.00 0.00 0.00 67 1012.4
20260505234523 55 117 0.9 1.7 0.00 0.00 0.00 68 1012.4
20260505233520 55 120 1.7 3.5 0.00 0.00 0.00 68 1012.3
20260505232516 55 111 1.7 1.7 0.00 0.00 0.00 68 1012.3
20260505231532 56 79 0.9 1.7 0.00 0.00 0.00 67 1012.4
20260505230528 56 133 0.9 1.7 0.00 0.00 0.00 66 1012.4
20260505225524 56 149 0.9 2.6 0.00 0.00 0.00 65 1012.3
20260505224521 56 103 1.7 1.7 0.00 0.00 0.00 65 1012.4
20260505223537 56 91 1.7 4.3 0.00 0.00 0.00 65 1012.4
20260505222533 55 124 1.7 2.6 0.00 0.00 0.00 65 1012.4
20260505221528 56 97 2.6 4.3 0.00 0.00 0.00 63 1012.4
20260505220525 57 102 2.6 5.2 0.00 0.00 0.00 62 1012.4
20260505215521 59 82 1.7 2.6 0.00 0.00 0.00 59 1012.4
20260505214518 59 163 2.6 5.2 0.00 0.00 0.00 59 1012.2
20260505213534 60 131 1.7 3.5 0.00 0.00 0.00 58 1012.3
20260505212530 58 157 2.6 5.2 0.00 0.00 0.00 58 1012.3
20260505211546 58 124 2.6 3.5 0.00 0.00 0.00 58 1012.3
20260505210543 57 140 2.6 3.5 0.00 0.00 0.00 56 1012.3
20260505205518 58 160 2.6 4.3 0.00 0.00 0.00 55 1012.3
20260505204556 58 159 2.6 4.3 0.00 0.00 0.00 54 1012.3
20260505203531 59 136 1.7 2.6 0.00 0.00 0.00 53 1012.3
20260505202547 59 150 2.6 2.6 0.00 0.00 0.00 53 1012.3
20260505201523 58 129 0.9 1.7 0.00 0.00 0.00 55 1012.3
20260505200545 59 123 1.7 1.7 0.00 0.00 0.00 54 1012.3
20260505195556 60 129 1.7 2.6 0.00 0.00 0.00 52 1012.3
20260505194553 61 131 1.7 1.7 0.00 0.00 0.00 51 1012.2
20260505193529 62 155 1.7 3.5 0.00 0.00 0.00 49 1012.2
20260505192524 64 179 3.5 5.2 0.00 0.00 0.00 47 1012.1
20260505191520 64 186 3.5 7.0 0.00 0.00 0.00 47 1012.0
20260505190517 64 185 3.5 6.1 0.00 0.00 0.00 48 1012.2
20260505185533 64 174 2.6 6.1 0.00 0.00 0.00 48 1012.1
20260505184550 64 157 1.7 3.5 0.00 0.00 0.00 48 1012.1
20260505183526 65 164 1.7 3.5 0.00 0.00 0.00 48 1012.1
20260505182541 65 156 1.7 2.6 0.00 0.00 0.00 47 1012.1
20260505181539 66 154 1.7 2.6 0.00 0.00 0.00 45 1012.0
20260505180534 67 165 1.7 2.6 0.00 0.00 0.00 45 1012.0
20260505175612 68 157 1.7 2.6 0.00 0.00 0.00 44 1011.8
20260505174547 70 159 1.7 2.6 0.00 0.00 0.00 42 1011.8
20260505173523 71 161 0.9 2.6 0.00 0.00 0.00 40 1011.6
20260505172518 72 162 1.7 2.6 0.00 0.00 0.00 38 1011.6
20260505171534 73 159 0.9 1.7 0.00 0.00 0.00 37 1011.6
20260505170531 74 159 0.9 1.7 0.00 0.00 0.00 35 1011.5
20260505165527 75 168 0.9 2.6 0.00 0.00 0.00 34 1011.4
20260505164524 76 174 0.9 1.7 0.00 0.00 0.00 33 1011.5
20260505163519 77 154 0.9 1.7 0.00 0.00 0.00 32 1011.5
20260505162536 78 152 0.0 1.7 0.00 0.00 0.00 31 1011.5
20260505161532 78 150 0.9 1.7 0.00 0.00 0.00 30 1011.5
20260505160529 79 173 0.9 2.6 0.00 0.00 0.00 28 1011.5
20260505152532 81 181 0.9 3.5 0.00 0.00 0.00 27 1011.6
20260505151528 81 181 0.0 2.6 0.00 0.00 0.00 28 1011.7
20260505150525 81 187 0.9 3.5 0.00 0.00 0.00 28 1011.7
20260505140522 82 138 1.7 4.3 0.00 0.00 0.00 29 1012.2